Regional Weather Roundup
Issued by NWS

Home | Current Version | Previous Version | Text Only | Print | Product List | Glossary Off
Versions: 1 2 3 4 5 6 7 8 9 10 11 12 13 14 15 16 17 18 19 20 21 22 23 24 25 26 27

000
ASUS45 KBOU 281007
RWRCO

WEATHER ROUNDUP FOR COLORADO
NATIONAL WEATHER SERVICE DENVER/BOULDER CO
400 AM MDT FRI APR 28 2017

NOTE: "FAIR" INDICATES FEW OR NO CLOUDS BELOW 12000 FEET WITH NO
SIGNIFICANT WEATHER AND/OR OBSTRUCTIONS TO VISIBILITY.

COZ001>005-013-030-031-281100-
...NORTHWEST COLORADO...

CITY           SKY/WX    TMP DP  RH WIND       PRES   REMARKS
CRAIG          CLOUDY    31  24  75 W8        29.75S WCI  23
HAYDEN         CLOUDY    28  23  80 W6        29.74S WCI  22
MEEKER         CLOUDY    29  27  92 S6        29.76R WCI  23
MOUNT WERNER   NOT AVBL
STEAMBOAT SPGS CLOUDY    28  25  89 SW8       29.72F WCI  20
WALDEN           N/A     21  18  86 SW6       29.69S WCI  14
$$

COZ006>008-011-281100-
...WEST CENTRAL VALLEYS...

CITY           SKY/WX    TMP DP  RH WIND       PRES   REMARKS
GRAND JUNCTION MOCLDY    31  18  58 CALM      29.76S
MONTROSE       FAIR      29  18  63 E5        29.78R WCI  24
EAGLE          MOCLDY    26  22  84 SE6       29.76S WCI  19
RIFLE          FAIR      31  29  92 CALM      29.75S
DELTA          MOCLDY    38  22  53 W5        29.75S
NUCLA          FAIR      32  12  43 E5        29.80S WCI  27
$$

COZ017>023-064>068-281100-
...SOUTHWEST COLORADO...

CITY           SKY/WX    TMP DP  RH WIND       PRES   REMARKS
DURANGO        CLOUDY    38  15  39 W9        29.74S
CORTEZ         CLOUDY    39  21  48 VRB3      29.76S
PAGOSA SPRINGS MOCLDY    30  16  55 CALM      29.76S
TELLURIDE      FAIR      28  12  51 CALM      29.77F
WOLF CREEK PAS CLOUDY    14   3  62 S9        29.81F WCI   2
$$

COZ009-010-012-014-032>034-037-058>063-281100-
...CENTRAL COLORADO...

CITY           SKY/WX    TMP DP  RH WIND       PRES   REMARKS
ASPEN          CLOUDY    23  18  81 S6        29.72F WCI  16
BUENA VISTA    FAIR      26  13  58 NW6       29.71R WCI  19
COPPER MTN     FAIR      14   9  79 MISG      29.68S
BERTHOUD PASS  CLOUDY     9  -4  56 NW29G36   29.60F WCI -14
COTTONWOOD PAS FAIR      27   9  46 W17G31    29.69S WCI  14
GUNNISON       FAIR      25  20  81 CALM      29.75R
KREMMLING      MOCLDY    34  28  80 CALM      29.73S
LEADVILLE      MOCLDY    12   7  80 N6        29.69F WCI   3
MONARCH PASS     N/A     12  10  92 W18G24    29.81S WCI  -5
SALIDA         FAIR      25  20  80 W7        29.79R WCI  17
SUNLIGHT       FAIR     N/A N/A N/A SW5       29.75F
WILKERSON PASS FAIR      14   5  67 W9G17     29.68F WCI   2
$$

COZ069>075-281100-
...SAN LUIS VALLEY/SANGRE DE CRISTO MOUNTAINS...

CITY           SKY/WX    TMP DP  RH WIND       PRES   REMARKS
ALAMOSA        MOCLDY    27  21  78 S5        29.73R WCI  22
LA VETA PASS   FAIR      23   9  54 SW8G18    29.83R WCI  14
SAGUACHE       FAIR      21  12  68 N5        29.76R WCI  15
$$

COZ035-036-038>040-281100-
...NORTHERN COLORADO FRONT RANGE...

CITY           SKY/WX    TMP DP  RH WIND       PRES   REMARKS
DENVER INTL AP FAIR      37  20  50 W7        29.61S
DMNS CITY PARK   N/A     43  11  28 W15G21    29.62R
AURORA         PTCLDY    36  15  41 W5        29.62S
FRONT RANGE AP FAIR      37  21  52 NW5       29.62F
ERIE MUNI ARPT FAIR      34  27  75 W8        29.61S WCI  28
BOULDER MUN AP FAIR      41  16  36 SW7       29.60R
CENTENNIAL     FAIR      34  20  56 W5        29.62S WCI  30
BROOMFIELD     FAIR      34  18  51 W5        29.62R WCI  30
FORT COLLINS   FAIR      30  30 100 CALM      29.61S FOG
LONGMONT       FAIR      35  31  88 CALM      29.63R
$$

COZ041-046-047-076>085-087-088-281100-
...PIKES PEAK/PALMER DIVIDE AND SOUTHERN FOOTHILLS...

CITY           SKY/WX    TMP DP  RH WIND       PRES   REMARKS
COLO. SPRINGS  FAIR      38  19  46 W6        29.64S
A. F. ACADEMY  FAIR      34  17  49 N6        29.64S WCI  29
SCHRIEVER AFB  FAIR      31  22  71 E7        29.65S WCI  24
ELLICOTT       FAIR     N/A N/A N/A S8        29.64S
FALCON         FAIR      33  17  53 W10       29.65S WCI  25
FORT CARSON    FAIR      34  25  69 E5        29.64R WCI  30
LIMON          FAIR      29  28  96 N3        29.63R
MONUMENT HILL  FAIR      32  16  51 SW3       29.65F
TRINIDAD       FAIR      33  28  81 W12       29.67R WCI  24
$$

COZ042>045-048>051-090-091-281100-
...NORTHEAST COLORADO...

CITY           SKY/WX    TMP DP  RH WIND       PRES   REMARKS
GREELEY ARPT   FAIR      31  30  96 CALM      29.63S
AKRON          FAIR      35  33  92 NW5       29.60S WCI  31
BURLINGTON     NOT AVBL
WRAY           NOT AVBL
STERLING       FAIR      36  36 100 N3        29.60S
HOLYOKE        CLOUDY    37  36  93 N10       29.61S
FORT MORGAN    FOG       32  32  99 W6        29.62S VSB 3/4 WCI  26
$$

COZ086-089-092>099-281100-
...SOUTHEAST COLORADO...

CITY           SKY/WX    TMP DP  RH WIND       PRES   REMARKS
PUEBLO         FAIR      37  32  82 CALM      29.64R
LA JUNTA       FAIR      40  36  86 S5        29.65S
LAMAR          FAIR      34  32  92 SW5       29.64S WCI  30
SPRINGFIELD      N/A     37  36  96 NW5       29.65S
$$




USA.gov is the U.S. government's official web portal to all federal, state and local government web resources and services.